Time,TemperatureF,DewpointF,PressureIn,WindDirection,WindDirectionDegrees,WindSpeedMPH,WindSpeedGustMPH,Humidity,HourlyPrecipIn,Conditions,Clouds,dailyrainin,SoftwareType,DateUTC
2013-08-31 00:21:00,63.0,58.0,29.94,East,81,0.0,0.0,83,0.00,,,0.00,,2013-08-31 07:21:00,
2013-08-31 00:52:00,62.0,57.0,29.95,East,81,0.0,0.0,84,0.00,,,0.00,,2013-08-31 07:52:00,
2013-08-31 01:22:00,62.0,58.0,29.94,East,81,0.0,0.0,87,0.00,,,0.00,,2013-08-31 08:22:00,
2013-08-31 01:52:00,61.0,57.0,29.94,East,83,0.0,2.0,86,0.00,,,0.00,,2013-08-31 08:52:00,
2013-08-31 02:23:00,61.0,57.0,29.93,East,83,0.0,0.0,86,0.00,,,0.00,,2013-08-31 09:23:00,
2013-08-31 02:53:00,60.0,56.0,29.92,East,83,0.0,0.0,87,0.00,,,0.00,,2013-08-31 09:53:00,
2013-08-31 03:23:00,60.0,56.0,29.92,East,83,0.0,0.0,88,0.00,,,0.00,,2013-08-31 10:23:00,
2013-08-31 03:53:00,60.0,57.0,29.92,East,83,0.0,0.0,91,0.00,,,0.00,,2013-08-31 10:53:00,
2013-08-31 04:21:00,60.0,57.0,29.91,East,83,0.0,4.0,91,0.00,,,0.00,,2013-08-31 11:21:00,
2013-08-31 04:52:00,60.0,57.0,29.91,SW,230,0.0,1.0,89,0.00,,,0.00,,2013-08-31 11:52:00,
2013-08-31 05:21:00,60.0,57.0,29.91,SW,230,0.0,0.0,89,0.00,,,0.00,,2013-08-31 12:21:00,
2013-08-31 05:52:00,59.0,56.0,29.91,SW,230,0.0,0.0,91,0.00,,,0.00,,2013-08-31 12:52:00,
2013-08-31 06:22:00,58.0,56.0,29.90,SW,230,0.0,0.0,93,0.00,,,0.00,,2013-08-31 13:22:00,
2013-08-31 06:52:00,58.0,56.0,29.91,SW,230,0.0,0.0,94,0.00,,,0.00,,2013-08-31 13:52:00,
2013-08-31 07:21:00,58.0,56.0,29.92,SW,230,0.0,0.0,94,0.00,,,0.00,,2013-08-31 14:21:00,
2013-08-31 07:52:00,59.0,57.0,29.92,SW,230,0.0,0.0,94,0.00,,,0.00,,2013-08-31 14:52:00,
2013-08-31 08:22:00,62.0,60.0,29.93,SSW,196,0.0,6.0,92,0.00,,,0.00,,2013-08-31 15:22:00,
2013-08-31 08:55:00,64.0,59.0,29.93,ESE,123,3.0,6.0,84,0.00,,,0.00,,2013-08-31 15:55:00,
2013-08-31 09:25:00,66.0,57.0,29.93,SSW,195,5.0,8.0,72,0.00,,,0.00,,2013-08-31 16:25:00,
2013-08-31 09:52:00,69.0,58.0,29.94,East,84,3.0,6.0,69,0.00,,,0.00,,2013-08-31 16:52:00,
2013-08-31 10:23:00,71.0,58.0,29.95,WNW,292,2.0,4.0,63,0.00,,,0.00,,2013-08-31 17:23:00,
2013-08-31 10:53:00,73.0,58.0,29.95,West,272,2.0,4.0,60,0.00,,,0.00,,2013-08-31 17:53:00,
2013-08-31 11:21:00,74.0,58.0,29.95,West,260,2.0,6.0,58,0.00,,,0.00,,2013-08-31 18:21:00,
2013-08-31 11:52:00,76.0,58.0,29.95,NW,306,2.0,6.0,53,0.00,,,0.00,,2013-08-31 18:52:00,
2013-08-31 12:21:00,78.0,58.0,29.95,West,265,3.0,7.0,51,0.00,,,0.00,,2013-08-31 19:21:00,
2013-08-31 12:52:00,80.0,57.0,29.95,West,260,5.0,9.0,45,0.00,,,0.00,,2013-08-31 19:52:00,
2013-08-31 13:22:00,82.0,57.0,29.94,WNW,298,5.0,9.0,43,0.00,,,0.00,,2013-08-31 20:22:00,
2013-08-31 13:52:00,83.0,55.0,29.94,WNW,283,4.0,8.0,38,0.00,,,0.00,,2013-08-31 20:52:00,
2013-08-31 14:22:00,84.0,52.0,29.93,WSW,258,5.0,10.0,33,0.00,,,0.00,,2013-08-31 21:22:00,
2013-08-31 14:54:00,85.0,54.0,29.91,WNW,293,5.0,8.0,35,0.00,,,0.00,,2013-08-31 21:54:00,
2013-08-31 15:23:00,87.0,55.0,29.91,WSW,251,4.0,10.0,34,0.00,,,0.00,,2013-08-31 22:23:00,
2013-08-31 15:53:00,87.0,55.0,29.91,West,279,5.0,10.0,34,0.00,,,0.00,,2013-08-31 22:53:00,
2013-08-31 16:22:00,84.0,53.0,29.90,WSW,252,3.0,8.0,35,0.00,,,0.00,,2013-08-31 23:22:00,
2013-08-31 16:52:00,85.0,53.0,29.90,West,279,5.0,11.0,33,0.00,,,0.00,,2013-08-31 23:52:00,
2013-08-31 17:21:00,83.0,54.0,29.90,West,262,4.0,9.0,37,0.00,,,0.00,,2013-09-01 00:21:00,
2013-08-31 17:52:00,80.0,51.0,29.89,West,262,4.0,8.0,36,0.00,,,0.00,,2013-09-01 00:52:00,
2013-08-31 18:21:00,78.0,55.0,29.89,West,259,2.0,6.0,45,0.00,,,0.00,,2013-09-01 01:21:00,
2013-08-31 18:52:00,75.0,55.0,29.88,WSW,249,3.0,7.0,49,0.00,,,0.00,,2013-09-01 01:52:00,
2013-08-31 19:22:00,73.0,55.0,29.88,WNW,301,3.0,8.0,53,0.00,,,0.00,,2013-09-01 02:22:00,
2013-08-31 19:53:00,71.0,57.0,29.88,WSW,258,2.0,5.0,62,0.00,,,0.00,,2013-09-01 02:53:00,
2013-08-31 20:22:00,67.0,58.0,29.89,WNW,302,0.0,5.0,73,0.00,,,0.00,,2013-09-01 03:22:00,
2013-08-31 21:03:00,-999.0,-99.9,29.90,SSE,151,1.0,4.0,-999,-99.99,,,-99.99,,2013-09-01 04:03:00,
2013-08-31 21:24:00,65.0,59.0,29.90,SSW,211,5.0,6.0,81,0.00,,,0.00,,2013-09-01 04:24:00,
2013-08-31 21:54:00,64.0,58.0,29.90,WNW,283,0.0,3.0,80,0.00,,,0.00,,2013-09-01 04:54:00,
2013-08-31 22:22:00,63.0,58.0,29.91,WSW,245,1.0,2.0,84,0.00,,,0.00,,2013-09-01 05:22:00,
2013-08-31 22:52:00,63.0,58.0,29.92,SSE,156,0.0,0.0,85,0.00,,,0.00,,2013-09-01 05:52:00,
2013-08-31 23:22:00,62.0,58.0,29.91,WSW,247,0.0,1.0,86,0.00,,,0.00,,2013-09-01 06:22:00,
2013-08-31 23:52:00,61.0,58.0,29.91,NW,321,1.0,5.0,89,0.00,,,0.00,,2013-09-01 06:52:00,